TimeMDT,TemperatureF,Dew PointF,Humidity,Sea Level PressureIn,VisibilityMPH,Wind Direction,Wind SpeedMPH,Gust SpeedMPH,PrecipitationIn,Events,Conditions,WindDirDegrees,DateUTC
12:53 AM,64.0,39.9,41,29.60,10.0,South,17.3,-,N/A,,Mostly Cloudy,170,2012-10-22 06:53:00
1:53 AM,64.0,39.9,41,29.60,10.0,South,18.4,-,N/A,,Mostly Cloudy,170,2012-10-22 07:53:00
2:53 AM,57.9,44.1,60,29.63,10.0,NW,10.4,16.1,N/A,,Mostly Cloudy,310,2012-10-22 08:53:00
3:53 AM,54.0,42.1,64,29.64,10.0,Calm,Calm,-,N/A,,Overcast,0,2012-10-22 09:53:00
4:53 AM,54.0,41.0,62,29.63,10.0,North,3.5,-,N/A,,Overcast,360,2012-10-22 10:53:00
5:53 AM,61.0,41.0,48,29.61,10.0,South,13.8,-,N/A,,Mostly Cloudy,170,2012-10-22 11:53:00
6:45 AM,53.6,42.8,67,29.73,10.0,North,20.7,-,N/A,,Overcast,360,2012-10-22 12:45:00
6:53 AM,53.1,39.9,61,29.65,10.0,North,16.1,-,N/A,,Overcast,350,2012-10-22 12:53:00
7:53 AM,52.0,39.0,61,29.63,10.0,NNW,5.8,-,N/A,,Mostly Cloudy,340,2012-10-22 13:53:00
8:53 AM,54.0,41.0,62,29.61,10.0,SSE,9.2,-,N/A,,Mostly Cloudy,150,2012-10-22 14:53:00
9:53 AM,62.1,41.0,46,29.60,10.0,South,16.1,29.9,N/A,,Mostly Cloudy,170,2012-10-22 15:53:00
10:53 AM,64.0,41.0,43,29.58,10.0,South,20.7,34.5,N/A,,Mostly Cloudy,170,2012-10-22 16:53:00
11:53 AM,64.9,41.0,42,29.54,10.0,South,27.6,42.6,N/A,,Mostly Cloudy,170,2012-10-22 17:53:00
12:53 PM,68.0,37.9,33,29.53,10.0,South,24.2,40.3,N/A,,Mostly Cloudy,170,2012-10-22 18:53:00
1:53 PM,72.0,37.0,28,29.49,10.0,South,27.6,35.7,N/A,,Mostly Cloudy,170,2012-10-22 19:53:00
2:53 PM,70.0,37.0,30,29.49,10.0,South,24.2,35.7,N/A,,Mostly Cloudy,170,2012-10-22 20:53:00
3:53 PM,71.1,36.0,28,29.48,10.0,South,23.0,34.5,N/A,,Mostly Cloudy,170,2012-10-22 21:53:00
4:53 PM,71.1,34.0,26,29.47,10.0,South,21.9,32.2,N/A,,Mostly Cloudy,190,2012-10-22 22:53:00
5:53 PM,70.0,34.0,27,29.47,10.0,South,19.6,33.4,N/A,,Mostly Cloudy,190,2012-10-22 23:53:00
6:53 PM,66.9,36.0,32,29.50,10.0,SSW,15.0,28.8,N/A,,Overcast,200,2012-10-23 00:53:00
7:53 PM,66.9,36.0,32,29.50,10.0,South,18.4,26.5,N/A,,Mostly Cloudy,180,2012-10-23 01:53:00
8:53 PM,66.0,35.1,32,29.52,10.0,South,17.3,-,N/A,,Overcast,180,2012-10-23 02:53:00
9:09 PM,60.8,39.2,45,29.66,10.0,West,12.7,24.2,N/A,,Overcast,270,2012-10-23 03:09:00
9:53 PM,57.0,45.0,64,29.59,10.0,North,13.8,-,0.00,,Overcast,10,2012-10-23 03:53:00
10:53 PM,54.0,46.0,75,29.59,10.0,North,16.1,-,0.00,,Overcast,10,2012-10-23 04:53:00
11:53 PM,51.8,46.4,82,29.70,7.0,North,13.8,-,N/A,Rain,Light Rain,10,2012-10-23 05:53:00